Kecskemet, Hungary

12:09 PM CET on January 22, 2018 (GMT +0100)
Kecskemet

Weather History for LHKE - May, 2013

Change the Weather History Date:

Thursday, May 23, 2013

  Actual Average (LHBP) Record (LHBP)
Temperature  
Mean Temperature 56 °F -  
Max Temperature 62 °F 72 °F 87 °F (2007)
Min Temperature 50 °F 49 °F 42 °F (2004)
Degree Days  
Heating Degree Days 9    
Growing Degree Days 6 (Base 50)    
Moisture  
Dew Point 49 °F    
Average Humidity 79    
Maximum Humidity 94    
Minimum Humidity 59    
Precipitation  
Precipitation 0.00 in - - ()
Sea Level Pressure  
Sea Level Pressure 29.62 in    
Wind  
Wind Speed 5 mph ()    
Max Wind Speed 13 mph    
Max Gust Speed 22 mph    
Visibility 5.9 miles    
Events Rain    
Averages and records for this station are not official NWS values.
T = Trace of Precipitation, MM = Missing Value Source: Averaged Metar Reports

Daily Weather History Graph

Daily Weather History Graph

Search for Another Location

Airport or City:

Trip Planner

Search our weather history database for the weather conditions in past years. The results will help you decide how hot, cold, wet, or windy it might be!

Date:

Astronomy

May. 23, 2013 Rise Set
Actual Time 4:57 AM CEST 8:18 PM CEST
Civil Twilight 4:20 AM CEST 8:56 PM CEST
Nautical Twilight 3:31 AM CEST 9:45 PM CEST
Astronomical Twilight 2:28 AM CEST 10:48 PM CEST
Moon 6:24 PM CEST (5/23) 3:37 AM CEST (5/23)
Length of Visible Light 16h 36m
Length of Day
15h 21m
Waxing Gibbous, 95% of the Moon is Illuminated
May 23
Waxing Gibbous
May 25
Full
May 31
Last Quarter
Jun 8
New
Jun 16
First Quarter

Hourly Weather History & Observations

Time (CEST) Temp. Dew Point Humidity Pressure Visibility Wind Dir Wind Speed Gust Speed Precip Events Conditions
12:15 AM 51.8 °F 50.0 °F 94% 29.71 in - Calm Calm - N/A   Clear
12:45 AM 50.0 °F 48.2 °F 94% 29.71 in - NNE 2.2 mph - N/A   Clear
1:15 AM 51.8 °F 50.0 °F 94% 29.71 in - Calm Calm - N/A   Clear
1:45 AM 50.0 °F 48.2 °F 94% 29.68 in - Calm Calm - N/A   Clear
2:15 AM 50.0 °F 48.2 °F 94% 29.68 in - West 2.2 mph - N/A   Clear
2:45 AM 51.8 °F 50.0 °F 94% 29.68 in - West 2.2 mph - N/A   Clear
3:15 AM 50.0 °F 48.2 °F 94% 29.65 in - NNE 2.2 mph - N/A   Clear
3:45 AM - - N/A% - 3.1 mi North 8.9 mph - N/A   Overcast
4:15 AM 51.8 °F 50.0 °F 94% 29.65 in - NNW 4.5 mph - N/A   Clear
4:45 AM 51.8 °F 50.0 °F 94% 29.65 in - NNW 6.7 mph - N/A   Clear
5:15 AM 51.8 °F 48.2 °F 88% 29.65 in - North 4.5 mph - N/A   Clear
5:45 AM 51.8 °F 50.0 °F 94% 29.65 in - North 4.5 mph - N/A   Clear
6:15 AM 51.8 °F 50.0 °F 94% 29.65 in - North 4.5 mph - N/A   Clear
6:45 AM - - N/A% - 3.1 mi North 8.9 mph - N/A Rain Rain
7:15 AM 53.6 °F 50.0 °F 88% 29.65 in 6.2 mi NNW 8.9 mph - N/A   Mostly Cloudy
7:45 AM 53.6 °F 50.0 °F 88% 29.62 in 6.2 mi NNW 6.7 mph - N/A   Mostly Cloudy
8:15 AM 53.6 °F 48.2 °F 82% 29.62 in 6.2 mi North 11.2 mph 22.4 mph N/A   Mostly Cloudy
8:45 AM 55.4 °F 48.2 °F 77% 29.62 in 6.2 mi North 11.2 mph - N/A   Mostly Cloudy
9:15 AM 57.2 °F 50.0 °F 77% 29.62 in 6.2 mi North 11.2 mph 22.4 mph N/A   Mostly Cloudy
9:45 AM - - N/A% - 6.2 mi North 8.9 mph - N/A   Mostly Cloudy
10:15 AM 57.2 °F 50.0 °F 77% 29.62 in 6.2 mi North 13.4 mph - N/A   Mostly Cloudy
10:45 AM 57.2 °F 50.0 °F 77% 29.62 in 6.2 mi North 11.2 mph - N/A   Overcast
11:15 AM 59.0 °F 50.0 °F 72% 29.62 in 6.2 mi North 8.9 mph - N/A   Overcast
11:45 AM 57.2 °F 50.0 °F 77% 29.62 in 6.2 mi North 11.2 mph - N/A   Overcast
12:15 PM 57.2 °F 50.0 °F 77% 29.59 in 6.2 mi NNW 8.9 mph - N/A   Overcast
12:45 PM - - N/A% - 6.2 mi North 8.9 mph - N/A   Mostly Cloudy
1:15 PM 59.0 °F 48.2 °F 67% 29.59 in 6.2 mi NNE 11.2 mph - N/A   Overcast
1:45 PM 60.8 °F 50.0 °F 68% 29.59 in 6.2 mi North 11.2 mph - N/A   Overcast
2:15 PM 60.8 °F 50.0 °F 68% 29.59 in 6.2 mi North 11.2 mph - N/A   Overcast
2:45 PM 60.8 °F 50.0 °F 68% 29.56 in 6.2 mi North 11.2 mph - N/A   Overcast
3:15 PM 62.6 °F 48.2 °F 59% 29.56 in 6.2 mi North 8.9 mph - N/A   Mostly Cloudy
3:45 PM - - N/A% - 6.2 mi North 11.2 mph - N/A   Overcast
4:15 PM 62.6 °F 48.2 °F 59% 29.56 in 6.2 mi North 8.9 mph - N/A   Overcast
4:45 PM 62.6 °F 48.2 °F 59% 29.56 in 6.2 mi North 8.9 mph - N/A   Mostly Cloudy
5:15 PM 60.8 °F 50.0 °F 68% 29.56 in 6.2 mi North 6.7 mph - N/A   Overcast
5:45 PM 62.6 °F 50.0 °F 63% 29.56 in 6.2 mi North 6.7 mph - N/A   Mostly Cloudy
6:09 PM - - N/A% - 6.2 mi North 11.2 mph - N/A   Overcast
6:15 PM 60.8 °F 48.2 °F 63% 29.56 in 6.2 mi NNE 4.5 mph - N/A   Mostly Cloudy
6:33 PM 60.8 °F 48.2 °F 63% 29.56 in 3.7 mi NE 8.9 mph - N/A Rain Light Rain Showers
6:45 PM - - N/A% - 6.2 mi North 6.7 mph - N/A   Mostly Cloudy
6:56 PM 57.2 °F 50.0 °F 77% 29.59 in 3.1 mi NNW 4.5 mph - N/A Rain Light Rain Showers
7:15 PM 57.2 °F 50.0 °F 77% 29.59 in 6.2 mi North 4.5 mph - N/A Rain Light Rain Showers
7:45 PM 57.2 °F 46.4 °F 67% 29.59 in 6.2 mi North 4.5 mph - N/A   Mostly Cloudy
8:15 PM 55.4 °F 48.2 °F 77% 29.59 in 6.2 mi North 2.2 mph - N/A   Overcast
8:45 PM 55.4 °F 50.0 °F 82% 29.59 in 6.2 mi NNW 4.5 mph - N/A   Overcast
9:15 PM 55.4 °F 46.4 °F 72% 29.62 in 6.2 mi NNW 2.2 mph - N/A   Overcast
9:45 PM - - N/A% - 6.2 mi NW 6.7 mph - N/A   Mostly Cloudy
10:15 PM 55.4 °F 48.2 °F 77% 29.62 in 6.2 mi NNW 4.5 mph - N/A   Overcast
10:45 PM 53.6 °F 50.0 °F 88% 29.62 in 6.2 mi NNW 2.2 mph - N/A   Overcast
11:15 PM 53.6 °F 50.0 °F 88% 29.62 in 6.2 mi WNW 4.5 mph - N/A   Overcast
11:45 PM 53.6 °F 48.2 °F 82% 29.62 in 6.2 mi WNW 2.2 mph - N/A   Overcast